Location: Gad�tanya
(48.0500°N, 20.8500°E)
Time: 10:55:56
(UTC+00:00)

Cosmos 2056 Rocket - Pass Details

Date: 05 July 2020
Orbit: 741 x 801 km, 74.0° (Epoch: 14 August)

Event Time Altitude Azimuth Distance (km) Brightness Sun altitude
Rises 21:16:52 0° 339° (NNW) 3,302 8.6 -16.8°
Reaches altitude 10° 21:19:17 10° 342° (NNW) 2,375 7.4 -16.9°
Maximum altitude 21:24:41 66° 64° (ENE) 875 3.8 -17.2°
Enters shadow 21:27:36 27° 140° (SE) 1,487 4.5 -17.4°
